Cross City, FL

4:24 AM EDT on September 20, 2019 (GMT -0400)
Cross City

Weather History for KCTY - August, 2019

Change the Weather History Date:

Thursday, August 22, 2019

  Actual Average Record
Temperature  
Mean Temperature 84 °F 81 °F  
Max Temperature 92 °F 91 °F 98 °F (2014)
Min Temperature 75 °F 72 °F 68 °F (2001)
Degree Days  
Heating Degree Days 0    
Month to date heating degree days 0  
Since 1 June heating degree days 0  
Since 1 July heating degree days 0  
Cooling Degree Days 19    
Month to date cooling degree days 375  
Year to date cooling degree days 2083  
Since 1 June cooling degree days 1399  
Growing Degree Days 34 (Base 50)    
Moisture  
Dew Point 76 °F    
Average Humidity 81    
Maximum Humidity 100    
Minimum Humidity 47    
Precipitation  
Precipitation 0.00 in 0.27 in 2.87 in (2008)
Month to date precipitation 9.34 5.13  
Year to date precipitation 45.18 33.05  
Sea Level Pressure  
Sea Level Pressure 30.04 in    
Wind  
Wind Speed 2 mph (SE)    
Max Wind Speed 7 mph    
Max Gust Speed -    
Visibility 10 miles    
Events      
T = Trace of Precipitation, MM = Missing Value Source: NWS Daily Summary

Daily Weather History Graph

Daily Weather History Graph

Search for Another Location

Airport or City:

Astronomy

Aug. 22, 2019 Rise Set
Actual Time 7:04 AM EDT 8:06 PM EDT
Civil Twilight 6:39 AM EDT 8:30 PM EDT
Nautical Twilight 6:10 AM EDT 8:59 PM EDT
Astronomical Twilight 5:40 AM EDT 9:29 PM EDT
Moon No Moon Rise 1:09 PM EDT (8/22)
Length of Visible Light 13h 51m
Length of Day
13h 01m
Waning Gibbous, 60% of the Moon is Illuminated
Aug 22
Waning Gibbous
Aug 23
Last Quarter
Aug 30
New
Sep 5
First Quarter
Sep 14
Full

Hourly Weather History & Observations

Time (EDT) Temp. Heat Index Dew Point Humidity Pressure Visibility Wind Dir Wind Speed Gust Speed Precip Events Conditions
12:15 AM 79.7 °F - 75.2 °F 86% 30.08 in 10.0 mi Calm Calm - N/A   Clear
12:35 AM 79.0 °F - 74.8 °F 87% 30.08 in 10.0 mi East 3.5 mph - N/A   Clear
12:55 AM 79.0 °F - 74.1 °F 85% 30.07 in 10.0 mi East 3.5 mph - N/A   Clear
1:15 AM 78.4 °F - 74.5 °F 88% 30.07 in 10.0 mi Calm Calm - N/A   Clear
1:35 AM 78.4 °F - 73.9 °F 86% 30.06 in 10.0 mi Calm Calm - N/A   Clear
1:55 AM 77.4 °F - 74.5 °F 91% 30.06 in 10.0 mi East 3.5 mph - N/A   Clear
2:15 AM 77.4 °F - 74.5 °F 91% 30.05 in 10.0 mi East 3.5 mph - N/A   Clear
2:35 AM 77.4 °F - 74.5 °F 91% 30.05 in 10.0 mi Calm Calm - N/A   Clear
2:55 AM 77.0 °F - 74.5 °F 92% 30.05 in 10.0 mi Calm Calm - N/A   Clear
3:15 AM 76.5 °F - 74.3 °F 93% 30.05 in 10.0 mi ESE 3.5 mph - N/A   Clear
3:35 AM 76.6 °F - 74.5 °F 93% 30.04 in 10.0 mi East 3.5 mph - N/A   Clear
3:55 AM 76.6 °F - 74.7 °F 94% 30.04 in 10.0 mi Calm Calm - N/A   Clear
4:15 AM 76.1 °F - 74.5 °F 95% 30.04 in 7.0 mi Calm Calm - N/A   Clear
4:35 AM 76.1 °F - 74.7 °F 95% 30.04 in 10.0 mi Calm Calm - N/A   Clear
4:55 AM 75.7 °F - 74.5 °F 96% 30.04 in 10.0 mi Calm Calm - N/A   Clear
5:15 AM 75.6 °F - 74.5 °F 96% 30.03 in 10.0 mi Calm Calm - N/A   Clear
5:35 AM 75.6 °F - 74.5 °F 96% 30.03 in 10.0 mi Calm Calm - N/A   Clear
5:55 AM 75.4 °F - 74.3 °F 96% 30.03 in 10.0 mi East 3.5 mph - N/A   Clear
6:15 AM 75.4 °F - 74.5 °F 97% 30.04 in 10.0 mi East 3.5 mph - N/A   Clear
6:35 AM 75.6 °F - 74.5 °F 96% 30.04 in 10.0 mi East 3.5 mph - N/A   Clear
6:55 AM 75.6 °F - 74.5 °F 96% 30.05 in 10.0 mi Calm Calm - N/A   Clear
7:15 AM 75.2 °F - 75.2 °F 100% 30.06 in 10.0 mi Calm Calm - N/A   Clear
7:35 AM 75.7 °F - 74.8 °F 97% 30.07 in 10.0 mi Calm Calm - N/A   Clear
7:55 AM 76.6 °F - 75.2 °F 95% 30.08 in 10.0 mi Calm Calm - N/A   Clear
8:15 AM 78.3 °F - 75.6 °F 91% 30.09 in 10.0 mi Calm Calm - N/A   Clear
8:35 AM 78.8 °F - 75.7 °F 90% 30.09 in 10.0 mi ESE 3.5 mph - N/A   Clear
8:55 AM 80.1 °F 85.5 °F 76.1 °F 88% 30.10 in 10.0 mi SSE 5.8 mph - N/A   Clear
9:15 AM 81.7 °F 89.2 °F 76.6 °F 85% 30.10 in 10.0 mi ESE 5.8 mph - N/A   Clear
9:35 AM 82.0 °F 89.9 °F 76.6 °F 84% 30.10 in 10.0 mi SE 4.6 mph - N/A   Clear
9:55 AM 83.5 °F 92.9 °F 77.0 °F 81% 30.09 in 10.0 mi ESE 3.5 mph - N/A   Clear
10:15 AM 84.0 °F 93.7 °F 76.8 °F 79% 30.09 in 10.0 mi Calm Calm - N/A   Clear
10:35 AM 85.5 °F 96.3 °F 77.0 °F 76% 30.09 in 10.0 mi East 3.5 mph - N/A   Clear
10:55 AM 85.3 °F 95.4 °F 76.6 °F 75% 30.09 in 10.0 mi Calm Calm - N/A   Scattered Clouds
11:15 AM 86.7 °F 97.3 °F 76.3 °F 71% 30.08 in 10.0 mi East 4.6 mph - N/A   Clear
11:35 AM 85.1 °F 94.1 °F 75.7 °F 73% 30.08 in 10.0 mi Calm Calm - N/A   Scattered Clouds
11:55 AM 86.7 °F 96.4 °F 75.6 °F 69% 30.08 in 10.0 mi Calm Calm - N/A   Scattered Clouds
12:15 PM 87.4 °F 98.2 °F 76.1 °F 69% 30.08 in 10.0 mi Calm Calm - N/A   Scattered Clouds
12:35 PM 88.3 °F 98.4 °F 75.2 °F 65% 30.07 in 10.0 mi Calm Calm - N/A   Mostly Cloudy
12:55 PM 89.6 °F 99.8 °F 75.2 °F 62% 30.07 in 10.0 mi Calm Calm - N/A   Scattered Clouds
1:15 PM 91.0 °F 99.3 °F 73.0 °F 55% 30.07 in 10.0 mi ENE 4.6 mph - N/A   Scattered Clouds
1:35 PM 91.6 °F 101.1 °F 73.9 °F 56% 30.06 in 10.0 mi ENE 5.8 mph - N/A   Scattered Clouds
1:55 PM 91.0 °F 99.8 °F 73.4 °F 56% 30.06 in 10.0 mi NE 5.8 mph - N/A   Scattered Clouds
2:15 PM 91.8 °F 101.5 °F 73.9 °F 56% 30.05 in 10.0 mi ENE 4.6 mph - N/A   Clear
2:35 PM 92.5 °F 102.6 °F 74.1 °F 55% 30.04 in 10.0 mi South 4.6 mph - N/A   Clear
2:55 PM 91.4 °F 100.1 °F 73.4 °F 55% 30.03 in 10.0 mi East 4.6 mph - N/A   Clear
3:15 PM 92.5 °F 100.7 °F 72.7 °F 52% 30.02 in 10.0 mi East 5.8 mph - N/A   Scattered Clouds
3:35 PM 92.1 °F 101.1 °F 73.4 °F 54% 30.01 in 10.0 mi SE 6.9 mph - N/A   Scattered Clouds
3:55 PM 91.0 °F 98.7 °F 72.5 °F 54% 30.01 in 10.0 mi Calm Calm - N/A   Mostly Cloudy
4:15 PM 90.3 °F 103.5 °F 77.2 °F 65% 30.00 in 10.0 mi WSW 8.1 mph - N/A   Mostly Cloudy
4:35 PM 89.6 °F 101.6 °F 76.5 °F 65% 29.99 in 10.0 mi SW 4.6 mph - N/A   Mostly Cloudy
4:55 PM 88.2 °F 100.7 °F 77.4 °F 70% 29.99 in 10.0 mi SSW 6.9 mph - N/A   Scattered Clouds
5:15 PM 85.5 °F 98.2 °F 78.8 °F 80% 29.98 in 10.0 mi SSW 6.9 mph - N/A   Scattered Clouds
5:35 PM 86.7 °F 97.3 °F 76.5 °F 71% 29.98 in 10.0 mi SSW 6.9 mph - N/A   Clear
5:55 PM 88.5 °F 101.1 °F 77.0 °F 69% 29.98 in 10.0 mi WSW 5.8 mph - N/A   Clear
6:15 PM 88.2 °F 101.2 °F 77.5 °F 71% 29.98 in 10.0 mi WSW 5.8 mph - N/A   Clear
6:35 PM 88.3 °F 100.0 °F 76.6 °F 68% 29.98 in 10.0 mi SW 6.9 mph - N/A   Clear
6:55 PM 88.3 °F 102.3 °F 78.1 °F 72% 29.98 in 10.0 mi WSW 4.6 mph - N/A   Clear
7:15 PM 87.4 °F 100.9 °F 78.3 °F 74% 29.98 in 10.0 mi WSW 4.6 mph - N/A   Clear
7:35 PM 86.5 °F 99.9 °F 78.6 °F 77% 29.99 in 10.0 mi WSW 5.8 mph - N/A   Clear
7:55 PM 85.5 °F 97.7 °F 78.3 °F 79% 30.00 in 10.0 mi WSW 4.6 mph - N/A   Clear
8:15 PM 84.4 °F 95.9 °F 78.4 °F 82% 30.01 in 10.0 mi WSW 5.8 mph - N/A   Clear
8:35 PM 83.7 °F 94.9 °F 78.8 °F 85% 30.02 in 10.0 mi Calm Calm - N/A   Clear
8:55 PM 83.1 °F 93.3 °F 78.3 °F 85% 30.01 in 10.0 mi NW 3.5 mph - N/A   Clear
9:15 PM 82.4 °F 91.8 °F 78.1 °F 87% 30.01 in 10.0 mi Calm Calm - N/A   Clear
9:35 PM 82.2 °F 91.3 °F 78.1 °F 87% 30.02 in 10.0 mi Calm Calm - N/A   Clear
9:55 PM 81.0 °F 89.0 °F 78.6 °F 93% 30.03 in 10.0 mi Calm Calm - N/A   Clear
10:15 PM 81.1 °F 89.3 °F 78.6 °F 92% 30.04 in 10.0 mi East 4.6 mph - N/A   Mostly Cloudy
10:35 PM 81.9 °F 91.1 °F 78.6 °F 90% 30.04 in 10.0 mi Calm Calm - N/A   Mostly Cloudy
10:55 PM 81.3 °F 89.9 °F 78.8 °F 92% 30.04 in 10.0 mi Calm Calm - N/A   Clear
11:15 PM 80.8 °F 88.5 °F 78.6 °F 93% 30.05 in 10.0 mi Calm Calm - N/A   Scattered Clouds
11:35 PM 81.0 °F 89.2 °F 79.0 °F 94% 30.05 in 10.0 mi Calm Calm - N/A   Mostly Cloudy
11:55 PM 80.6 °F 88.3 °F 79.0 °F 95% 30.05 in 10.0 mi Calm Calm - N/A   Mostly Cloudy